Flag for U.S.A. Weather past 2 weeks in Pasco, Washington, U.S.A.

Now
66 °F

Overcast.


Feels Like: 66 °F
Forecast: 58 / 75 °F
Wind: 8 mph from West

Location: Tri-Cities Airport

Current Time: Aug 30, 2015 at 9:23:03 AM

Latest Report: Aug 30, 2015 at 8:53 AM


Visibility: 10 mi

Pressure: 29.86 "Hg

Humidity: 59%

Dew point: 51 °F

Location of PascoLocation

Historic Weather in Pasco — Graph

°F

Pasco temperature yesterday

Maximum temperature yesterday: 84 °F (at 1:53 PM)
Minimum temperature yesterday: 62 °F (at 5:53 AM)
Average temperature yesterday: 72 °F

Past Weeks' High & Low Weather Summary

 TemperatureHumidityPressure
High97 °F (Aug 19, 4:53 PM)90% (Aug 17, 3:53 AM)30.18 "Hg (Aug 17, 3:53 AM)
Low47 °F (Aug 23, 5:53 AM)13% (Aug 15, 5:53 PM)29.49 "Hg (Aug 29, 7:53 AM)
Average72 °F49%29.90 "Hg
* Reported Aug 15 7:53 AM — Aug 30 7:53 AM, Pasco, Weather by CustomWeather, © 2015

Note: Actual official high and low records may vary slightly from our data, if they occured in-between our weather recording intervals... More about our weather records

Advertising

Pasco weather history for previous 24 hours

 ConditionsComfort  
Time TempWeatherWind HumidityBarometerVisibility
7:53 AM
Sun, Aug 30
66 °FPartly sunny.3 mph59%29.84 "Hg10 mi
6:53 AM64 °FOvercast.7 mph63%29.82 "Hg10 mi
5:53 AM62 °FPassing clouds.5 mph65%29.80 "Hg10 mi
4:53 AM61 °FClear.9 mph67%29.80 "Hg10 mi
3:53 AM63 °FPassing clouds.7 mph60%29.80 "Hg10 mi
2:53 AM62 °FOvercast.7 mph65%29.80 "Hg10 mi
1:53 AM63 °FClear.8 mph58%29.80 "Hg10 mi
12:53 AM65 °FClear.5 mph54%29.81 "Hg10 mi
11:53 PM
Sat, Aug 29
63 °FClear.3 mph60%29.80 "Hg10 mi
10:53 PM63 °FClear.3 mph60%29.81 "Hg10 mi
9:53 PM68 °FClear.9 mph51%29.81 "Hg10 mi
8:53 PM70 °FClear.9 mph44%29.80 "Hg10 mi
7:53 PM74 °FSunny.5 mph38%29.78 "Hg10 mi
6:53 PM78 °FScattered clouds.8 mph32%29.77 "Hg10 mi
5:53 PM77 °FSunny.8 mph32%29.77 "Hg10 mi
4:53 PM83 °FSunny.17 mph26%29.76 "Hg10 mi
3:53 PM84 °FScattered clouds.22 mph25%29.75 "Hg8 mi
2:53 PM84 °FScattered clouds.23 mph22%29.75 "Hg2 mi
1:53 PM84 °FMostly cloudy.24 mph23%29.74 "Hg2 mi
12:53 PM79 °FMostly cloudy.14 mph35%29.74 "Hg2 mi
11:58 AM76 °FBroken clouds.18 mph39%29.75 "Hg2 mi
11:00 AM75 °FPartly sunny.13 mph47%29.72 "Hg3 mi
9:53 AM76 °FOvercast.20 mph45%29.65 "Hg10 mi
Weather by CustomWeather, © 2015

See weather overviewHow to use our weather pages